Overview Statistics Trail Chart Weather Telemetry Raw packets
 

This is the latest recevied weather packets stored in our database for station/object N0QV. If no packets are shown the sender has not sent any weather packets the latest 10 day(s).

<< 108 109 110 111 112 113 114 >>
Time Temp. Humidity Pressure Rain* Wind** Luminosity Snow
1787849355 26.67° C 51% 1019.8 hPa 0 mm - 615 W/m² -
1787849054 26.11° C 56% 1019.8 hPa 0 mm - 634 W/m² -
1787848749 25.56° C 55% 1019.8 hPa 0 mm - 634 W/m² -
1787848444 25.56° C 55% 1019.6 hPa 0 mm - 640 W/m² -
1787848144 25.56° C 57% 1019.8 hPa 0 mm - 637 W/m² -
1787847844 25.56° C 64% 1019.7 hPa 0 mm - 639 W/m² -
1787847539 25.56° C 63% 1019.7 hPa 0 mm - 636 W/m² -
1787847234 25° C 63% 1019.9 hPa 0 mm - 605 W/m² -
1787846931 25.56° C 64% 1019.9 hPa 0 mm - 599 W/m² -
1787846630 25.56° C 63% 1020 hPa 0 mm - 614 W/m² -
1787846325 25° C 65% 1020 hPa 0 mm - 568 W/m² -
1787846022 24.44° C 67% 1019.7 hPa 0 mm - 507 W/m² -
1787845717 24.44° C 67% 1019.9 hPa 0 mm - 467 W/m² -
1787845416 23.89° C 68% 1020 hPa 0 mm - 487 W/m² -
1787845113 24.44° C 67% 1020 hPa 0 mm - 536 W/m² -
1787844809 23.89° C 69% 1019.9 hPa 0 mm - 519 W/m² -
1787844507 23.89° C 69% 1019.7 hPa 0 mm - 447 W/m² -
1787844203 23.33° C 70% 1019.7 hPa 0 mm - 418 W/m² -
1787843901 23.33° C 71% 1019.8 hPa 0 mm - 444 W/m² -
1787843597 22.78° C 73% 1019.6 hPa 0 mm - 481 W/m² -
1787843293 23.33° C 69% 1019.7 hPa 0 mm - 504 W/m² -
1787842989 22.78° C 72% 1019.7 hPa 0 mm - 461 W/m² -
1787842688 21.67° C 74% 1019.5 hPa 0 mm - 410 W/m² -
1787842384 21.67° C 75% 1019.5 hPa 0 mm - 377 W/m² -
1787842078 21.67° C 75% 1019.4 hPa 0 mm - 383 W/m² -

* Rain latest hour (hover to see other rain measurements)
** Current wind speed in m/s (hover to see current wind gust speed)